CZ-6A DEB, 61823

Orbit data source: Space-Track

CZ-6A DEB, 61823 is space debris in LEO originally from a launch on Tue, 06 Aug 2024 UTC launched from the Taiyaun Space Center, China (TSC). Debris objects in space refer to the collection of defunct objects orbiting the Earth. Examples of debris include non-operational satellites, rocket bodies, and fragments generated from explosions, collisions, or faulty payload assembly.

Loading next visibility...
Identifier
61823, 2024-140ACP
Orbit
LEO
Country
Flag of CNCN / PRC
Related business
Manufacturer
SAST
Mission
Spacecraft
Bus & Motor
Unknown
Mass
Unknown
Launch date (UTC)
2024-08-06 (2 years ago)
Launch vehicle
Unknown
Launch site
Taiyaun Space Center, China (TSC)
Object type
Payload
Rocket body
Debris
Shape & HBR
Unknown shape, 1.1 m
Radar Cross Section
Medium (>0.1 m² and <1 m²)

Expand to show TLE details & history
Last TLE update: 15 hours ago

TLE from 15 hours ago
0 CZ-6A DEB
1 61823U 24140ACP 26171.33784725  .00002148  00000-0  11704-2 0  9997
2 61823  89.0690 281.2864 0112290 214.2642 145.1263 14.08715367 91117
Epoch: 2026-06-20T08:06Z
TLE epoch observation values (Epoch: 2026-06-20T08:06:30.002Z)
Latitude
-0.00005°
Longitude
-108.89252°
Altitude
933.832 km
Speed
7.351 km/s
True Right ascension
18h 45m 08s
True Declination
0° 00' 00"
Sunlit
Object was in full shadow at epoch
Visualization orbit readout
Latitude
Unknown
Longitude
Unknown
Altitude
Unknown
Speed
Unknown
Apparent Right ascension
Unknown
Apparent Declination
Unknown
Sunlit
N/A
Visualization observer readout
Local Sidereal Time
10:18:08
Azimuth
Unknown
Elevation
Unknown
Doppler factor
Unknown
Orbital elements
Apogee altitude
942.023 km
Perigee altitude
779.452 km
Semi-major axis
7,238.875 km
Eccentricity
0.01123
Inclination
89.069°
RAAN
281.2864°
Arg. of periapsis
214.2642°
True anomaly
145.85362°
Mean anomaly
145.1263°
Eccentric anomaly
145.4908°
Mean motion
3.52401 °/min
Orbital period
102.16 mins
BSTAR
0.0011704
Loading maneuver chart data...
Computing Atmospheric mass density...
Loading historical data...
Loading historical data...
Loading historical data...
Loading historical data...
Loading historical data...
Loading historical data...
Loading historical data...

Documentation

Showing up to 5 results
|